Regional Weather Roundup
Issued by NWS

Home | Current Version | Previous Version | Graphics & Text | Print | Product List | Glossary On
Versions: 1 2 3 4 5 6 7 8 9 10 11 12 13 14 15 16 17 18 19 20 21 22 23 24 25 26 27 28 29 30 31 32 33 34 35 36 37 38 39 40 41 42 43 44 45 46 47 48 49 50
000
ASUS43 KLMK 051210
RWRKY
KENTUCKY REGIONAL WEATHER ROUNDUP
NATIONAL WEATHER SERVICE LOUISVILLE KY
700 AM EST MON DEC 05 2016

NOTE "FAIR" INDICATES FEW OR NO CLOUDS BELOW 12,000 FEET
WITH NO SIGNIFICANT WEATHER AND/OR OBSTRUCTIONS TO VISIBILITY.

KYZ001>023-026-027-061>063-070>075-051300-
WESTERN AND SOUTH CENTRAL KENTUCKY

CITY           SKY/WX    TMP DP  RH WIND       PRES   REMARKS
PADUCAH        PTCLDY    37  32  82 E3        30.07R
HENDERSON      CLOUDY    37  30  75 NE3       30.08F
OWENSBORO      CLOUDY    39  33  79 NE5       30.08F
HOPKINSVILLE   CLOUDY    39  35  86 NE7       30.06R WCI  34
BOWLING GREEN  CLOUDY    40  35  83 N5        30.07F
GLASGOW        CLOUDY    38  38 100 N3        30.07F
$$

KYZ024-025-028>034-038-045-046-053-051300-
NORTH CENTRAL KENTUCKY

CITY           SKY/WX    TMP DP  RH WIND       PRES   REMARKS
LOUISVILLE/SDF CLOUDY    40  32  73 N3        30.09S
LOUISVILLE/LOU CLOUDY    40  32  73 CALM      30.09F
FORT KNOX      CLOUDY    38  33  82 N2        30.07S
$$

KYZ035>037-039>044-047>052-055>060-089>105-051300-
NORTHEAST KENTUCKY

CITY           SKY/WX    TMP DP  RH WIND       PRES   REMARKS
LEXINGTON      CLOUDY    40  36  86 N8        30.08R WCI  34
COVINGTON      CLOUDY    37  33  85 NW5       30.08R WCI  33
FRANKFORT      CLOUDY    39  34  82 NW5       30.08R
$$

KYZ054-064>069-076>088-106>120-051300-
SOUTHEAST KENTUCKY

CITY           SKY/WX    TMP DP  RH WIND       PRES   REMARKS
JACKSON        CLOUDY    43  40  89 VRB3      30.06R
LONDON         CLOUDY    43  40  89 N3        30.06R
SOMERSET       CLOUDY    41  41 100 N3        30.08S
MIDDLESBORO    CLOUDY    46  45  99 NE5       30.05R
MONTICELLO     CLOUDY    43  41  93 NE10      30.08R
$$




USA.gov is the U.S. government's official web portal to all federal, state and local government web resources and services.